Time,TemperatureF,DewpointF,PressureIn,WindDirection,WindDirectionDegrees,WindSpeedMPH,WindSpeedGustMPH,Humidity,HourlyPrecipIn,Conditions,Clouds,dailyrainin,SoftwareType,DateUTC
2013-03-01 00:00:00,29.8,28.9,29.90,WNW,302,3.0,11.0,96,0.00,,OVC OVC///CB,0.01,WUHU216DAVISVP2,2013-03-01 05:00:00,
2013-03-01 00:05:00,29.9,28.7,29.90,West,281,2.0,11.0,95,0.00,,OVC OVC///CB,0.00,WUHU216DAVISVP2,2013-03-01 05:05:00,
2013-03-01 00:06:00,29.9,28.7,29.90,WNW,295,1.0,11.0,95,0.00,,OVC OVC///CB,0.00,WUHU216DAVISVP2,2013-03-01 05:06:00,
2013-03-01 00:11:00,29.9,28.7,29.90,WNW,302,2.0,10.0,95,0.00,,OVC OVC///CB,0.00,WUHU216DAVISVP2,2013-03-01 05:11:00,
2013-03-01 00:16:00,29.8,28.3,29.90,WNW,291,3.0,10.0,94,0.00,,OVC OVC///CB,0.00,WUHU216DAVISVP2,2013-03-01 05:16:00,
2013-03-01 00:21:00,29.8,28.6,29.90,North,11,7.0,12.0,95,0.00,,OVC OVC///CB,0.00,WUHU216DAVISVP2,2013-03-01 05:21:00,
2013-03-01 00:26:00,29.7,28.5,29.90,NNW,335,1.0,12.0,95,0.00,,OVC OVC///CB,0.00,WUHU216DAVISVP2,2013-03-01 05:26:00,
2013-03-01 00:31:00,29.7,28.5,29.90,West,279,4.0,13.0,95,0.00,,OVC OVC///CB,0.00,WUHU216DAVISVP2,2013-03-01 05:31:00,
2013-03-01 00:36:00,29.6,28.4,29.90,NE,50,0.0,13.0,95,0.00,,OVC OVC///CB,0.00,WUHU216DAVISVP2,2013-03-01 05:36:00,
2013-03-01 00:41:00,29.5,28.3,29.90,WNW,301,2.0,12.0,95,0.00,,OVC OVC///CB,0.00,WUHU216DAVISVP2,2013-03-01 05:41:00,
2013-03-01 00:46:00,29.5,28.3,29.90,NW,322,6.0,11.0,95,0.00,,OVC OVC///CB,0.00,WUHU216DAVISVP2,2013-03-01 05:46:00,
2013-03-01 00:51:00,29.5,28.3,29.90,North,4,3.0,12.0,95,0.00,,OVC OVC///CB,0.00,WUHU216DAVISVP2,2013-03-01 05:51:00,
2013-03-01 00:56:00,29.5,28.3,29.90,NNW,342,2.0,12.0,95,0.00,,OVC OVC///CB,0.00,WUHU216DAVISVP2,2013-03-01 05:56:00,
2013-03-01 01:01:00,29.6,28.4,29.91,NE,39,3.0,12.0,95,0.00,,OVC OVC///CB,0.00,WUHU216DAVISVP2,2013-03-01 06:01:00,
2013-03-01 01:06:00,29.5,28.0,29.91,NNW,347,1.0,10.0,94,0.00,,OVC OVC///CB,0.00,WUHU216DAVISVP2,2013-03-01 06:06:00,
2013-03-01 01:11:00,29.5,28.0,29.91,NNW,328,6.0,10.0,94,0.00,,OVC OVC///CB,0.00,WUHU216DAVISVP2,2013-03-01 06:11:00,
2013-03-01 01:16:00,29.5,28.0,29.91,NNE,30,2.0,9.0,94,0.00,,OVC OVC///CB,0.00,WUHU216DAVISVP2,2013-03-01 06:16:00,
2013-03-01 01:21:00,29.5,28.0,29.91,NNE,32,1.0,9.0,94,0.00,,OVC OVC///CB,0.00,WUHU216DAVISVP2,2013-03-01 06:21:00,
2013-03-01 01:26:00,29.5,28.0,29.90,NW,319,5.0,8.0,94,0.00,,OVC OVC///CB,0.00,WUHU216DAVISVP2,2013-03-01 06:26:00,
2013-03-01 01:31:00,29.5,28.0,29.91,NNW,334,2.0,9.0,94,0.00,,OVC OVC///CB,0.00,WUHU216DAVISVP2,2013-03-01 06:31:00,
2013-03-01 01:36:00,29.5,27.8,29.91,WNW,285,2.0,11.0,93,0.00,,OVC OVC///CB,0.00,WUHU216DAVISVP2,2013-03-01 06:36:00,
2013-03-01 01:41:00,29.5,27.8,29.91,North,11,2.0,11.0,93,0.00,,OVC OVC///CB,0.00,WUHU216DAVISVP2,2013-03-01 06:41:00,
2013-03-01 01:46:00,29.5,27.8,29.91,WNW,287,7.0,11.0,93,0.00,,OVC OVC///CB,0.00,WUHU216DAVISVP2,2013-03-01 06:46:00,
2013-03-01 01:51:00,29.5,27.8,29.91,NNW,327,1.0,11.0,93,0.00,,OVC OVC///CB,0.00,WUHU216DAVISVP2,2013-03-01 06:51:00,
2013-03-01 01:56:00,29.5,28.0,29.91,West,276,3.0,8.0,94,0.00,,OVC OVC///CB,0.00,WUHU216DAVISVP2,2013-03-01 06:56:00,
2013-03-01 02:01:00,29.5,27.8,29.91,NW,326,3.0,8.0,93,0.00,,OVC OVC///CB,0.00,WUHU216DAVISVP2,2013-03-01 07:01:00,
2013-03-01 02:06:00,29.4,27.7,29.91,NW,316,7.0,10.0,93,0.00,,OVC OVC///CB,0.00,WUHU216DAVISVP2,2013-03-01 07:06:00,
2013-03-01 02:11:00,29.4,27.7,29.91,NNW,338,3.0,10.0,93,0.00,,OVC OVC///CB,0.00,WUHU216DAVISVP2,2013-03-01 07:11:00,
2013-03-01 02:16:00,29.4,27.7,29.91,NNE,32,2.0,12.0,93,0.00,,OVC OVC///CB,0.00,WUHU216DAVISVP2,2013-03-01 07:16:00,
2013-03-01 02:21:00,29.3,27.6,29.91,North,352,2.0,12.0,93,0.00,,OVC OVC///CB,0.00,WUHU216DAVISVP2,2013-03-01 07:21:00,
2013-03-01 02:26:00,29.3,27.6,29.91,NNW,332,1.0,11.0,93,0.00,,OVC OVC///CB,0.00,WUHU216DAVISVP2,2013-03-01 07:26:00,
2013-03-01 02:31:00,29.3,27.8,29.91,NW,307,7.0,11.0,94,0.00,,OVC OVC///CB,0.00,WUHU216DAVISVP2,2013-03-01 07:31:00,
2013-03-01 02:36:00,29.2,27.5,29.91,NW,308,3.0,11.0,93,0.00,,OVC OVC///CB,0.00,WUHU216DAVISVP2,2013-03-01 07:36:00,
2013-03-01 02:41:00,29.2,27.5,29.91,WNW,284,2.0,11.0,93,0.00,,OVC OVC///CB,0.00,WUHU216DAVISVP2,2013-03-01 07:41:00,
2013-03-01 02:46:00,29.2,27.7,29.91,NW,305,6.0,10.0,94,0.00,,OVC OVC///CB,0.00,WUHU216DAVISVP2,2013-03-01 07:46:00,
2013-03-01 02:51:00,29.1,27.6,29.92,North,1,8.0,10.0,94,0.00,,OVC OVC///CB,0.00,WUHU216DAVISVP2,2013-03-01 07:51:00,
2013-03-01 02:56:00,29.0,27.5,29.91,North,350,2.0,11.0,94,0.00,,OVC OVC///CB,0.00,WUHU216DAVISVP2,2013-03-01 07:56:00,
2013-03-01 03:01:00,29.0,27.5,29.91,WNW,297,3.0,11.0,94,0.00,,OVC OVC///CB,0.00,WUHU216DAVISVP2,2013-03-01 08:01:00,
2013-03-01 03:06:00,29.0,27.5,29.91,WNW,295,3.0,10.0,94,0.00,,OVC OVC///CB,0.00,WUHU216DAVISVP2,2013-03-01 08:06:00,
2013-03-01 03:11:00,28.9,27.4,29.91,WNW,290,2.0,10.0,94,0.00,,OVC OVC///CB,0.00,WUHU216DAVISVP2,2013-03-01 08:11:00,
2013-03-01 03:16:00,28.9,27.7,29.91,WNW,294,3.0,12.0,95,0.00,,OVC OVC///CB,0.00,WUHU216DAVISVP2,2013-03-01 08:16:00,
2013-03-01 03:21:00,28.8,27.6,29.91,NW,305,4.0,12.0,95,0.00,,OVC OVC///CB,0.00,WUHU216DAVISVP2,2013-03-01 08:21:00,
2013-03-01 03:26:00,28.8,27.6,29.91,North,11,8.0,12.0,95,0.00,,OVC OVC///CB,0.00,WUHU216DAVISVP2,2013-03-01 08:26:00,
2013-03-01 03:31:00,28.8,27.6,29.91,WSW,258,4.0,12.0,95,0.00,,OVC OVC///CB,0.00,WUHU216DAVISVP2,2013-03-01 08:31:00,
2013-03-01 03:36:00,28.7,27.5,29.91,NW,311,4.0,12.0,95,0.00,,OVC OVC///CB,0.00,WUHU216DAVISVP2,2013-03-01 08:36:00,
2013-03-01 03:41:00,28.7,27.5,29.92,WNW,293,1.0,12.0,95,0.00,,OVC OVC///CB,0.00,WUHU216DAVISVP2,2013-03-01 08:41:00,
2013-03-01 03:46:00,28.6,27.7,29.92,WNW,290,2.0,12.0,96,0.00,,OVC OVC///CB,0.00,WUHU216DAVISVP2,2013-03-01 08:46:00,
2013-03-01 03:51:00,28.6,27.7,29.91,West,280,4.0,11.0,96,0.00,,OVC OVC///CB,0.00,WUHU216DAVISVP2,2013-03-01 08:51:00,
2013-03-01 03:56:00,28.6,27.7,29.91,North,350,2.0,11.0,96,0.00,,OVC OVC///CB,0.00,WUHU216DAVISVP2,2013-03-01 08:56:00,
2013-03-01 04:01:00,28.6,27.7,29.91,NW,326,0.0,11.0,96,0.00,,OVC OVC///CB,0.00,WUHU216DAVISVP2,2013-03-01 09:01:00,
2013-03-01 04:06:00,28.6,27.7,29.91,WNW,284,2.0,8.0,96,0.00,,OVC OVC///CB,0.00,WUHU216DAVISVP2,2013-03-01 09:06:00,
2013-03-01 04:11:00,28.5,27.6,29.91,WNW,290,1.0,10.0,96,0.00,,OVC OVC///CB,0.00,WUHU216DAVISVP2,2013-03-01 09:11:00,
2013-03-01 04:16:00,28.6,27.7,29.91,NW,322,6.0,10.0,96,0.00,,OVC OVC///CB,0.00,WUHU216DAVISVP2,2013-03-01 09:16:00,
2013-03-01 04:21:00,28.6,27.7,29.91,West,263,1.0,10.0,96,0.00,,OVC OVC///CB,0.00,WUHU216DAVISVP2,2013-03-01 09:21:00,
2013-03-01 04:26:00,28.6,27.7,29.91,NNW,342,4.0,10.0,96,0.00,,OVC OVC///CB,0.00,WUHU216DAVISVP2,2013-03-01 09:26:00,
2013-03-01 04:31:00,28.6,27.7,29.92,NW,318,3.0,11.0,96,0.00,,OVC OVC///CB,0.00,WUHU216DAVISVP2,2013-03-01 09:31:00,
2013-03-01 04:36:00,28.6,27.7,29.92,North,11,9.0,11.0,96,0.00,,OVC OVC///CB,0.00,WUHU216DAVISVP2,2013-03-01 09:36:00,
2013-03-01 04:41:00,28.7,27.5,29.92,North,350,6.0,11.0,95,0.00,,OVC OVC///CB,0.00,WUHU216DAVISVP2,2013-03-01 09:41:00,
2013-03-01 04:46:00,28.7,27.5,29.92,WNW,302,1.0,11.0,95,0.00,,OVC OVC///CB,0.00,WUHU216DAVISVP2,2013-03-01 09:46:00,
2013-03-01 04:51:00,28.7,27.5,29.92,WNW,297,4.0,11.0,95,0.00,,OVC OVC///CB,0.00,WUHU216DAVISVP2,2013-03-01 09:51:00,
2013-03-01 04:56:00,28.7,27.5,29.92,NNW,332,1.0,11.0,95,0.00,,OVC OVC///CB,0.00,WUHU216DAVISVP2,2013-03-01 09:56:00,
2013-03-01 05:01:00,28.7,27.5,29.92,NE,46,2.0,12.0,95,0.00,,OVC OVC///CB,0.00,WUHU216DAVISVP2,2013-03-01 10:01:00,
2013-03-01 05:06:00,28.7,27.2,29.92,NNE,25,5.0,12.0,94,0.00,,OVC OVC///CB,0.00,WUHU216DAVISVP2,2013-03-01 10:06:00,
2013-03-01 05:11:00,28.8,27.3,29.92,NNE,27,2.0,11.0,94,0.00,,OVC OVC///CB,0.00,WUHU216DAVISVP2,2013-03-01 10:11:00,
2013-03-01 05:16:00,28.8,27.3,29.92,NE,56,6.0,11.0,94,0.00,,OVC OVC///CB,0.00,WUHU216DAVISVP2,2013-03-01 10:16:00,
2013-03-01 05:21:00,28.7,27.2,29.92,NNE,29,7.0,10.0,94,0.00,,OVC OVC///CB,0.00,WUHU216DAVISVP2,2013-03-01 10:21:00,
2013-03-01 05:26:00,28.7,27.2,29.92,NNW,339,1.0,9.0,94,0.00,,OVC OVC///CB,0.00,WUHU216DAVISVP2,2013-03-01 10:26:00,
2013-03-01 05:31:00,28.7,27.2,29.92,North,350,7.0,9.0,94,0.00,,OVC OVC///CB,0.00,WUHU216DAVISVP2,2013-03-01 10:31:00,
2013-03-01 05:36:00,28.6,27.2,29.92,NNW,342,2.0,11.0,94,0.00,,OVC OVC///CB,0.00,WUHU216DAVISVP2,2013-03-01 10:36:00,
2013-03-01 05:41:00,28.6,27.2,29.92,NNW,338,4.0,11.0,94,0.00,,OVC OVC///CB,0.00,WUHU216DAVISVP2,2013-03-01 10:41:00,
2013-03-01 05:46:00,28.6,26.9,29.93,NW,326,2.0,10.0,93,0.00,,OVC OVC///CB,0.00,WUHU216DAVISVP2,2013-03-01 10:46:00,
2013-03-01 05:51:00,28.6,26.9,29.93,NNW,342,6.0,11.0,93,0.00,,OVC OVC///CB,0.00,WUHU216DAVISVP2,2013-03-01 10:51:00,
2013-03-01 05:56:00,28.6,26.6,29.93,NNE,20,8.0,11.0,92,0.00,,OVC OVC///CB,0.00,WUHU216DAVISVP2,2013-03-01 10:56:00,
2013-03-01 06:01:00,28.5,26.5,29.93,North,359,6.0,12.0,92,0.00,,OVC OVC///CB,0.00,WUHU216DAVISVP2,2013-03-01 11:01:00,
2013-03-01 06:06:00,28.5,26.5,29.93,NNE,14,7.0,12.0,92,0.00,,OVC OVC///CB,0.00,WUHU216DAVISVP2,2013-03-01 11:06:00,
2013-03-01 06:11:00,28.5,26.5,29.93,NW,324,7.0,12.0,92,0.00,,OVC OVC///CB,0.00,WUHU216DAVISVP2,2013-03-01 11:11:00,
2013-03-01 06:16:00,28.4,26.4,29.93,NE,53,11.0,11.0,92,0.00,,OVC OVC///CB,0.00,WUHU216DAVISVP2,2013-03-01 11:16:00,
2013-03-01 06:21:00,28.3,26.3,29.93,NNE,26,3.0,12.0,92,0.00,,OVC OVC///CB,0.00,WUHU216DAVISVP2,2013-03-01 11:21:00,
2013-03-01 06:26:00,28.2,26.2,29.94,NW,322,3.0,14.0,92,0.00,,OVC OVC///CB,0.00,WUHU216DAVISVP2,2013-03-01 11:26:00,
2013-03-01 06:31:00,28.2,26.2,29.94,NE,46,2.0,14.0,92,0.00,,OVC OVC///CB,0.00,WUHU216DAVISVP2,2013-03-01 11:31:00,
2013-03-01 06:36:00,28.1,26.1,29.94,NNE,15,11.0,14.0,92,0.00,,OVC OVC///CB,0.00,WUHU216DAVISVP2,2013-03-01 11:36:00,
2013-03-01 06:41:00,28.1,25.9,29.94,NE,34,10.0,14.0,91,0.00,,OVC OVC///CB,0.00,WUHU216DAVISVP2,2013-03-01 11:41:00,
2013-03-01 06:46:00,28.0,25.5,29.94,North,4,12.0,17.0,90,0.00,,OVC OVC///CB,0.00,WUHU216DAVISVP2,2013-03-01 11:46:00,
2013-03-01 06:51:00,28.0,25.2,29.93,NE,41,9.0,17.0,89,0.00,,OVC OVC///CB,0.00,WUHU216DAVISVP2,2013-03-01 11:51:00,
2013-03-01 06:56:00,27.9,25.1,29.94,NE,51,3.0,17.0,89,0.00,,OVC OVC///CB,0.00,WUHU216DAVISVP2,2013-03-01 11:56:00,
2013-03-01 07:01:00,27.9,25.1,29.94,NNE,18,7.0,16.0,89,0.00,,OVC OVC///CB,0.00,WUHU216DAVISVP2,2013-03-01 12:01:00,
2013-03-01 07:06:00,27.8,24.8,29.94,NNE,19,6.0,15.0,88,0.00,,OVC OVC///CB,0.00,WUHU216DAVISVP2,2013-03-01 12:06:00,
2013-03-01 07:11:00,27.8,24.8,29.94,NNE,18,5.0,15.0,88,0.00,,OVC OVC///CB,0.00,WUHU216DAVISVP2,2013-03-01 12:11:00,
2013-03-01 07:16:00,27.7,24.7,29.95,WNW,302,3.0,15.0,88,0.00,,OVC OVC///CB,0.00,WUHU216DAVISVP2,2013-03-01 12:16:00,
2013-03-01 07:21:00,27.7,24.7,29.95,NE,47,4.0,15.0,88,0.00,,OVC OVC///CB,0.00,WUHU216DAVISVP2,2013-03-01 12:21:00,
2013-03-01 07:26:00,27.6,24.3,29.95,NNW,338,4.0,13.0,87,0.00,,OVC OVC///CB,0.00,WUHU216DAVISVP2,2013-03-01 12:26:00,
2013-03-01 07:31:00,27.5,24.2,29.95,NNE,29,11.0,15.0,87,0.00,,OVC OVC///CB,0.00,WUHU216DAVISVP2,2013-03-01 12:31:00,
2013-03-01 07:36:00,27.4,23.8,29.95,North,3,3.0,15.0,86,0.00,,OVC OVC///CB,0.00,WUHU216DAVISVP2,2013-03-01 12:36:00,
2013-03-01 07:41:00,27.4,23.8,29.96,NNE,13,7.0,14.0,86,0.00,,OVC OVC///CB,0.00,WUHU216DAVISVP2,2013-03-01 12:41:00,
2013-03-01 07:46:00,27.4,23.8,29.96,NW,322,4.0,14.0,86,0.00,,OVC OVC///CB,0.00,WUHU216DAVISVP2,2013-03-01 12:46:00,
2013-03-01 07:51:00,27.4,23.8,29.96,WNW,293,1.0,11.0,86,0.00,,OVC OVC///CB,0.00,WUHU216DAVISVP2,2013-03-01 12:51:00,
2013-03-01 07:56:00,27.4,23.8,29.97,NNW,339,3.0,11.0,86,0.00,,OVC OVC///CB,0.00,WUHU216DAVISVP2,2013-03-01 12:56:00,
2013-03-01 08:01:00,27.4,23.8,29.97,NNE,31,5.0,8.0,86,0.00,,OVC OVC///CB,0.00,WUHU216DAVISVP2,2013-03-01 13:01:00,
2013-03-01 08:06:00,27.3,23.7,29.97,NNE,18,2.0,11.0,86,0.00,,OVC OVC///CB,0.00,WUHU216DAVISVP2,2013-03-01 13:06:00,
2013-03-01 08:11:00,27.2,23.9,29.97,NNE,21,3.0,11.0,87,0.00,,OVC OVC///CB,0.00,WUHU216DAVISVP2,2013-03-01 13:11:00,
2013-03-01 08:16:00,27.1,23.8,29.97,NNE,15,8.0,11.0,87,0.00,,OVC OVC///CB,0.00,WUHU216DAVISVP2,2013-03-01 13:16:00,
2013-03-01 08:21:00,27.0,24.0,29.98,NNW,332,3.0,11.0,88,0.00,,OVC OVC///CB,0.00,WUHU216DAVISVP2,2013-03-01 13:21:00,
2013-03-01 08:26:00,26.9,24.2,29.98,North,4,3.0,10.0,89,0.00,,OVC OVC///CB,0.00,WUHU216DAVISVP2,2013-03-01 13:26:00,
2013-03-01 08:31:00,26.8,24.3,29.98,North,5,5.0,10.0,90,0.00,,OVC OVC///CB,0.00,WUHU216DAVISVP2,2013-03-01 13:31:00,
2013-03-01 08:36:00,26.8,24.3,29.98,North,350,3.0,9.0,90,0.00,,OVC OVC///CB,0.00,WUHU216DAVISVP2,2013-03-01 13:36:00,
2013-03-01 08:41:00,26.8,24.3,29.98,NE,40,5.0,7.0,90,0.00,,OVC OVC///CB,0.00,WUHU216DAVISVP2,2013-03-01 13:41:00,
2013-03-01 08:46:00,26.7,24.2,29.98,North,353,4.0,9.0,90,0.00,,OVC OVC///CB,0.00,WUHU216DAVISVP2,2013-03-01 13:46:00,
2013-03-01 08:51:00,26.6,24.1,29.98,NE,37,6.0,9.0,90,0.00,,OVC OVC///CB,0.00,WUHU216DAVISVP2,2013-03-01 13:51:00,
2013-03-01 08:56:00,26.5,24.3,29.99,NNW,336,4.0,8.0,91,0.00,,OVC OVC///CB,0.00,WUHU216DAVISVP2,2013-03-01 13:56:00,
2013-03-01 09:01:00,26.5,24.3,29.99,NNW,340,1.0,8.0,91,0.00,,OVC OVC///CB,0.00,WUHU216DAVISVP2,2013-03-01 14:01:00,
2013-03-01 09:06:00,26.5,24.3,29.99,NNW,333,2.0,10.0,91,0.00,,OVC OVC///CB,0.00,WUHU216DAVISVP2,2013-03-01 14:06:00,
2013-03-01 09:11:00,26.7,24.2,29.99,NNE,32,1.0,10.0,90,0.00,,OVC OVC///CB,0.00,WUHU216DAVISVP2,2013-03-01 14:11:00,
2013-03-01 09:16:00,26.9,23.9,29.99,NNW,335,5.0,10.0,88,0.00,,OVC OVC///CB,0.00,WUHU216DAVISVP2,2013-03-01 14:16:00,
2013-03-01 09:21:00,27.1,23.8,29.99,North,8,9.0,12.0,87,0.00,,OVC OVC///CB,0.00,WUHU216DAVISVP2,2013-03-01 14:21:00,
2013-03-01 09:26:00,27.2,23.9,29.99,NW,322,2.0,12.0,87,0.00,,OVC OVC///CB,0.00,WUHU216DAVISVP2,2013-03-01 14:26:00,
2013-03-01 09:31:00,27.4,24.1,29.99,NNE,30,4.0,11.0,87,0.00,,OVC OVC///CB,0.00,WUHU216DAVISVP2,2013-03-01 14:31:00,
2013-03-01 09:36:00,27.5,23.9,29.99,NW,316,5.0,11.0,86,0.00,,OVC OVC///CB,0.00,WUHU216DAVISVP2,2013-03-01 14:36:00,
2013-03-01 09:41:00,27.5,23.4,29.99,NNE,12,8.0,14.0,84,0.00,,OVC OVC///CB,0.00,WUHU216DAVISVP2,2013-03-01 14:41:00,
2013-03-01 09:46:00,27.5,23.9,29.99,NNW,328,2.0,14.0,86,0.00,,OVC OVC///CB,0.00,WUHU216DAVISVP2,2013-03-01 14:46:00,
2013-03-01 09:51:00,27.6,24.0,29.99,WNW,298,7.0,13.0,86,0.00,,OVC OVC///CB,0.00,WUHU216DAVISVP2,2013-03-01 14:51:00,
2013-03-01 09:56:00,27.5,23.9,29.99,WNW,295,3.0,13.0,86,0.00,,OVC OVC///CB,0.00,WUHU216DAVISVP2,2013-03-01 14:56:00,
2013-03-01 10:01:00,27.4,23.8,29.98,NNW,345,6.0,11.0,86,0.00,,OVC OVC///CB,0.00,WUHU216DAVISVP2,2013-03-01 15:01:00,
2013-03-01 10:06:00,27.5,24.2,29.98,NNW,340,8.0,10.0,87,0.00,,OVC OVC///CB,0.00,WUHU216DAVISVP2,2013-03-01 15:06:00,
2013-03-01 10:11:00,27.4,23.8,29.99,NNW,344,6.0,12.0,86,0.00,,OVC OVC///CB,0.00,WUHU216DAVISVP2,2013-03-01 15:11:00,
2013-03-01 10:16:00,27.2,23.6,29.99,NE,49,5.0,12.0,86,0.00,,OVC OVC///CB,0.00,WUHU216DAVISVP2,2013-03-01 15:16:00,
2013-03-01 10:21:00,27.1,24.1,29.99,NNE,26,6.0,11.0,88,0.00,,OVC OVC///CB,0.00,WUHU216DAVISVP2,2013-03-01 15:21:00,
2013-03-01 10:26:00,26.7,24.0,29.99,North,354,4.0,12.0,89,0.00,,OVC OVC///CB,0.00,WUHU216DAVISVP2,2013-03-01 15:26:00,
2013-03-01 10:31:00,26.6,24.4,29.99,NNW,338,4.0,12.0,91,0.00,,OVC OVC///CB,0.00,WUHU216DAVISVP2,2013-03-01 15:31:00,
2013-03-01 10:36:00,26.7,24.7,30.00,North,1,8.0,11.0,92,0.00,,OVC OVC///CB,0.00,WUHU216DAVISVP2,2013-03-01 15:36:00,
2013-03-01 10:41:00,26.8,24.6,30.00,NNW,347,7.0,11.0,91,0.00,,OVC OVC///CB,0.00,WUHU216DAVISVP2,2013-03-01 15:41:00,
2013-03-01 10:46:00,26.9,24.4,30.00,NW,308,3.0,10.0,90,0.00,,OVC OVC///CB,0.00,WUHU216DAVISVP2,2013-03-01 15:46:00,
2013-03-01 10:51:00,27.0,24.5,30.00,NNW,342,4.0,10.0,90,0.00,,OVC OVC///CB,0.00,WUHU216DAVISVP2,2013-03-01 15:51:00,
2013-03-01 10:56:00,27.1,24.4,30.00,NNW,332,4.0,8.0,89,0.00,,OVC OVC///CB,0.00,WUHU216DAVISVP2,2013-03-01 15:56:00,
2013-03-01 11:01:00,27.3,24.5,30.00,NNE,18,6.0,8.0,89,0.00,,OVC OVC///CB,0.00,WUHU216DAVISVP2,2013-03-01 16:01:00,
2013-03-01 11:06:00,27.4,24.9,30.00,ENE,72,6.0,7.0,90,0.00,,OVC OVC///CB,0.00,WUHU216DAVISVP2,2013-03-01 16:06:00,
2013-03-01 11:11:00,27.4,24.6,30.00,ENE,69,7.0,7.0,89,0.00,,OVC OVC///CB,0.00,WUHU216DAVISVP2,2013-03-01 16:11:00,
2013-03-01 11:16:00,27.3,23.7,30.00,North,6,2.0,9.0,86,0.00,,OVC OVC///CB,0.00,WUHU216DAVISVP2,2013-03-01 16:16:00,
2013-03-01 11:21:00,27.5,23.9,30.00,NW,319,3.0,9.0,86,0.00,,OVC OVC///CB,0.00,WUHU216DAVISVP2,2013-03-01 16:21:00,
2013-03-01 11:26:00,27.4,23.8,30.01,North,6,4.0,11.0,86,0.00,,OVC OVC///CB,0.00,WUHU216DAVISVP2,2013-03-01 16:26:00,
2013-03-01 11:31:00,27.3,24.0,30.01,NE,45,2.0,14.0,87,0.00,,OVC OVC///CB,0.00,WUHU216DAVISVP2,2013-03-01 16:31:00,
2013-03-01 11:36:00,27.3,23.7,30.01,NNW,327,2.0,14.0,86,0.00,,OVC OVC///CB,0.00,WUHU216DAVISVP2,2013-03-01 16:36:00,
2013-03-01 11:41:00,27.4,23.8,30.01,NE,47,4.0,14.0,86,0.00,,OVC OVC///CB,0.00,WUHU216DAVISVP2,2013-03-01 16:41:00,
2013-03-01 11:46:00,27.5,23.7,30.01,North,8,7.0,14.0,85,0.00,,OVC OVC///CB,0.00,WUHU216DAVISVP2,2013-03-01 16:46:00,
2013-03-01 11:51:00,27.6,23.5,30.01,NNE,30,5.0,13.0,84,0.00,,OVC OVC///CB,0.00,WUHU216DAVISVP2,2013-03-01 16:51:00,
2013-03-01 11:56:00,27.7,24.1,30.01,NE,44,7.0,10.0,86,0.00,,OVC OVC///CB,0.00,WUHU216DAVISVP2,2013-03-01 16:56:00,
2013-03-01 12:01:00,27.6,24.0,30.01,NE,55,5.0,12.0,86,0.00,,OVC OVC///CB,0.00,WUHU216DAVISVP2,2013-03-01 17:01:00,
2013-03-01 12:06:00,27.5,23.9,30.01,NNW,335,4.0,13.0,86,0.00,,OVC OVC///CB,0.00,WUHU216DAVISVP2,2013-03-01 17:06:00,
2013-03-01 12:11:00,27.5,23.9,30.01,NNE,29,3.0,13.0,86,0.00,,OVC OVC///CB,0.00,WUHU216DAVISVP2,2013-03-01 17:11:00,
2013-03-01 12:16:00,27.9,24.6,30.01,NW,317,8.0,12.0,87,0.00,,OVC OVC///CB,0.00,WUHU216DAVISVP2,2013-03-01 17:16:00,
2013-03-01 12:21:00,28.1,24.0,30.00,NNW,329,3.0,12.0,84,0.00,,OVC OVC///CB,0.00,WUHU216DAVISVP2,2013-03-01 17:21:00,
2013-03-01 12:26:00,28.1,23.7,30.00,NE,39,2.0,11.0,83,0.00,,OVC OVC///CB,0.00,WUHU216DAVISVP2,2013-03-01 17:26:00,
2013-03-01 12:31:00,28.5,24.4,30.00,West,277,3.0,11.0,84,0.00,,OVC OVC///CB,0.00,WUHU216DAVISVP2,2013-03-01 17:31:00,
2013-03-01 12:36:00,28.6,24.2,30.01,West,277,4.0,11.0,83,0.00,,OVC OVC///CB,0.00,WUHU216DAVISVP2,2013-03-01 17:36:00,
2013-03-01 12:41:00,28.6,23.6,30.00,NW,321,7.0,11.0,81,0.00,,OVC OVC///CB,0.00,WUHU216DAVISVP2,2013-03-01 17:41:00,
2013-03-01 12:46:00,28.6,23.6,30.00,NW,314,6.0,11.0,81,0.00,,OVC OVC///CB,0.00,WUHU216DAVISVP2,2013-03-01 17:46:00,
2013-03-01 12:51:00,28.8,23.8,30.00,NE,47,9.0,11.0,81,0.00,,OVC OVC///CB,0.00,WUHU216DAVISVP2,2013-03-01 17:51:00,
2013-03-01 12:56:00,28.7,24.0,30.00,North,352,16.0,16.0,82,0.00,,OVC OVC///CB,0.00,WUHU216DAVISVP2,2013-03-01 17:56:00,
2013-03-01 13:01:00,28.8,23.8,30.00,NE,51,8.0,16.0,81,0.00,,OVC OVC///CB,0.00,WUHU216DAVISVP2,2013-03-01 18:01:00,
2013-03-01 13:06:00,28.8,23.8,30.00,NNE,27,4.0,16.0,81,0.00,,OVC OVC///CB,0.00,WUHU216DAVISVP2,2013-03-01 18:06:00,
2013-03-01 13:11:00,29.0,24.6,30.00,NE,36,4.0,14.0,83,0.00,,OVC OVC///CB,0.00,WUHU216DAVISVP2,2013-03-01 18:11:00,
2013-03-01 13:16:00,29.0,24.0,30.00,WNW,295,5.0,12.0,81,0.00,,OVC OVC///CB,0.00,WUHU216DAVISVP2,2013-03-01 18:16:00,
2013-03-01 13:21:00,28.8,24.1,30.00,NNE,18,5.0,11.0,82,0.00,,OVC OVC///CB,0.00,WUHU216DAVISVP2,2013-03-01 18:21:00,
2013-03-01 13:26:00,28.6,23.9,29.99,NNW,338,4.0,12.0,82,0.00,,OVC OVC///CB,0.00,WUHU216DAVISVP2,2013-03-01 18:26:00,
2013-03-01 13:31:00,28.5,24.1,29.99,NNE,14,7.0,13.0,83,0.00,,OVC OVC///CB,0.00,WUHU216DAVISVP2,2013-03-01 18:31:00,
2013-03-01 13:36:00,28.5,24.1,29.99,NNW,348,4.0,13.0,83,0.00,,OVC OVC///CB,0.00,WUHU216DAVISVP2,2013-03-01 18:36:00,
2013-03-01 13:41:00,28.6,24.5,29.99,ENE,60,4.0,13.0,84,0.00,,OVC OVC///CB,0.00,WUHU216DAVISVP2,2013-03-01 18:41:00,
2013-03-01 13:46:00,28.9,25.0,29.99,NNE,29,6.0,12.0,85,0.00,,OVC OVC///CB,0.00,WUHU216DAVISVP2,2013-03-01 18:46:00,
2013-03-01 13:51:00,28.6,24.5,29.99,NNW,339,1.0,12.0,84,0.00,,OVC OVC///CB,0.00,WUHU216DAVISVP2,2013-03-01 18:51:00,
2013-03-01 13:56:00,28.9,25.0,29.99,North,354,4.0,11.0,85,0.00,,OVC OVC///CB,0.00,WUHU216DAVISVP2,2013-03-01 18:56:00,
2013-03-01 14:01:00,28.9,25.0,29.99,North,354,7.0,10.0,85,0.00,,OVC OVC///CB,0.00,WUHU216DAVISVP2,2013-03-01 19:01:00,
2013-03-01 14:06:00,28.9,24.8,29.99,WNW,290,2.0,13.0,84,0.00,,OVC OVC///CB,0.00,WUHU216DAVISVP2,2013-03-01 19:06:00,
2013-03-01 14:11:00,28.9,25.0,29.99,West,281,0.0,13.0,85,0.00,,OVC OVC///CB,0.00,WUHU216DAVISVP2,2013-03-01 19:11:00,
2013-03-01 14:16:00,28.9,25.0,29.99,WNW,288,3.0,13.0,85,0.00,,OVC OVC///CB,0.00,WUHU216DAVISVP2,2013-03-01 19:16:00,
2013-03-01 14:21:00,28.5,24.9,29.99,WNW,297,3.0,13.0,86,0.00,,OVC OVC///CB,0.00,WUHU216DAVISVP2,2013-03-01 19:21:00,
2013-03-01 14:26:00,28.3,25.3,29.99,NNW,340,9.0,10.0,88,0.00,,OVC OVC///CB,0.00,WUHU216DAVISVP2,2013-03-01 19:26:00,
2013-03-01 14:31:00,28.3,25.0,29.99,WNW,286,3.0,10.0,87,0.00,,OVC OVC///CB,0.00,WUHU216DAVISVP2,2013-03-01 19:31:00,
2013-03-01 14:36:00,28.2,24.9,29.99,NNE,14,7.0,10.0,87,0.00,,OVC OVC///CB,0.00,WUHU216DAVISVP2,2013-03-01 19:36:00,
2013-03-01 14:41:00,28.1,24.8,29.99,NW,304,2.0,9.0,87,0.00,,OVC OVC///CB,0.00,WUHU216DAVISVP2,2013-03-01 19:41:00,
2013-03-01 14:46:00,28.2,25.2,29.99,NNE,20,4.0,9.0,88,0.00,,OVC OVC///CB,0.00,WUHU216DAVISVP2,2013-03-01 19:46:00,
2013-03-01 14:51:00,28.2,25.4,29.99,NW,316,6.0,9.0,89,0.00,,OVC OVC///CB,0.00,WUHU216DAVISVP2,2013-03-01 19:51:00,
2013-03-01 14:56:00,28.2,25.2,29.99,North,359,2.0,9.0,88,0.00,,OVC OVC///CB,0.00,WUHU216DAVISVP2,2013-03-01 19:56:00,
2013-03-01 15:01:00,28.1,25.3,29.99,NE,39,5.0,10.0,89,0.00,,OVC OVC///CB,0.00,WUHU216DAVISVP2,2013-03-01 20:01:00,
2013-03-01 15:06:00,28.0,25.5,29.99,NNE,27,3.0,10.0,90,0.00,,OVC OVC///CB,0.00,WUHU216DAVISVP2,2013-03-01 20:06:00,
2013-03-01 15:11:00,28.0,25.5,29.99,ENE,77,5.0,9.0,90,0.00,,OVC OVC///CB,0.00,WUHU216DAVISVP2,2013-03-01 20:11:00,
2013-03-01 15:16:00,27.8,25.0,29.99,NNW,338,8.0,9.0,89,0.00,,OVC OVC///CB,0.00,WUHU216DAVISVP2,2013-03-01 20:16:00,
2013-03-01 15:21:00,27.7,24.7,30.00,NNE,17,5.0,13.0,88,0.00,,OVC OVC///CB,0.00,WUHU216DAVISVP2,2013-03-01 20:21:00,
2013-03-01 15:26:00,27.7,24.9,29.99,NNE,27,8.0,13.0,89,0.00,,OVC OVC///CB,0.00,WUHU216DAVISVP2,2013-03-01 20:26:00,
2013-03-01 15:31:00,27.7,24.9,29.99,NNW,342,3.0,12.0,89,0.00,,OVC OVC///CB,0.00,WUHU216DAVISVP2,2013-03-01 20:31:00,
2013-03-01 15:36:00,27.7,24.9,29.99,NE,37,3.0,11.0,89,0.00,,OVC OVC///CB,0.00,WUHU216DAVISVP2,2013-03-01 20:36:00,
2013-03-01 15:41:00,27.8,25.0,29.99,NNW,345,3.0,11.0,89,0.00,,OVC OVC///CB,0.00,WUHU216DAVISVP2,2013-03-01 20:41:00,
2013-03-01 15:46:00,27.8,24.8,29.99,North,350,4.0,12.0,88,0.00,,OVC OVC///CB,0.00,WUHU216DAVISVP2,2013-03-01 20:46:00,
2013-03-01 15:51:00,27.8,24.8,29.99,NW,322,7.0,12.0,88,0.00,,OVC OVC///CB,0.00,WUHU216DAVISVP2,2013-03-01 20:51:00,
2013-03-01 15:56:00,27.8,24.8,29.99,NNE,23,3.0,12.0,88,0.00,,OVC OVC///CB,0.00,WUHU216DAVISVP2,2013-03-01 20:56:00,
2013-03-01 16:01:00,27.8,24.5,29.99,NW,324,4.0,11.0,87,0.00,,OVC OVC///CB,0.00,WUHU216DAVISVP2,2013-03-01 21:01:00,
2013-03-01 16:06:00,27.9,24.3,29.99,NW,305,2.0,13.0,86,0.00,,OVC OVC///CB,0.00,WUHU216DAVISVP2,2013-03-01 21:06:00,
2013-03-01 16:11:00,28.0,24.4,30.00,NNW,337,7.0,13.0,86,0.00,,OVC OVC///CB,0.00,WUHU216DAVISVP2,2013-03-01 21:11:00,
2013-03-01 16:16:00,28.0,24.7,29.99,NNW,347,2.0,13.0,87,0.00,,OVC OVC///CB,0.00,WUHU216DAVISVP2,2013-03-01 21:16:00,
2013-03-01 16:21:00,28.2,24.9,30.00,NNW,347,1.0,13.0,87,0.00,,OVC OVC///CB,0.00,WUHU216DAVISVP2,2013-03-01 21:21:00,
2013-03-01 16:26:00,28.4,25.1,30.00,WNW,302,4.0,11.0,87,0.00,,OVC OVC///CB,0.00,WUHU216DAVISVP2,2013-03-01 21:26:00,
2013-03-01 16:31:00,28.2,24.4,30.00,NW,317,6.0,10.0,85,0.00,,OVC OVC///CB,0.00,WUHU216DAVISVP2,2013-03-01 21:31:00,
2013-03-01 16:36:00,28.1,24.3,30.00,NW,316,3.0,10.0,85,0.00,,OVC OVC///CB,0.00,WUHU216DAVISVP2,2013-03-01 21:36:00,
2013-03-01 16:41:00,28.1,24.3,30.00,WNW,303,4.0,10.0,85,0.00,,OVC OVC///CB,0.00,WUHU216DAVISVP2,2013-03-01 21:41:00,
2013-03-01 16:46:00,28.0,23.9,30.00,NE,49,0.0,12.0,84,0.00,,OVC OVC///CB,0.00,WUHU216DAVISVP2,2013-03-01 21:46:00,
2013-03-01 16:51:00,28.0,23.9,30.00,North,9,2.0,12.0,84,0.00,,OVC OVC///CB,0.00,WUHU216DAVISVP2,2013-03-01 21:51:00,
2013-03-01 16:56:00,28.0,23.9,30.00,NNW,347,3.0,11.0,84,0.00,,OVC OVC///CB,0.00,WUHU216DAVISVP2,2013-03-01 21:56:00,
2013-03-01 17:01:00,27.9,24.1,30.01,NNE,31,2.0,11.0,85,0.00,,OVC OVC///CB,0.00,WUHU216DAVISVP2,2013-03-01 22:01:00,
2013-03-01 17:06:00,27.8,24.2,30.01,West,281,3.0,10.0,86,0.00,,OVC OVC///CB,0.00,WUHU216DAVISVP2,2013-03-01 22:06:00,
2013-03-01 17:11:00,27.7,24.1,30.01,NNW,332,2.0,9.0,86,0.00,,OVC OVC///CB,0.00,WUHU216DAVISVP2,2013-03-01 22:11:00,
2013-03-01 17:16:00,27.6,23.8,30.01,North,1,2.0,9.0,85,0.00,,OVC OVC///CB,0.00,WUHU216DAVISVP2,2013-03-01 22:16:00,
2013-03-01 17:21:00,27.5,23.7,30.01,NW,318,4.0,11.0,85,0.00,,OVC OVC///CB,0.00,WUHU216DAVISVP2,2013-03-01 22:21:00,
2013-03-01 17:26:00,27.5,23.7,30.01,NW,323,4.0,11.0,85,0.00,,OVC OVC///CB,0.00,WUHU216DAVISVP2,2013-03-01 22:26:00,
2013-03-01 17:31:00,27.4,23.8,30.01,NNW,335,5.0,11.0,86,0.00,,OVC OVC///CB,0.00,WUHU216DAVISVP2,2013-03-01 22:31:00,
2013-03-01 17:36:00,27.3,24.0,30.01,WNW,293,2.0,11.0,87,0.00,,OVC OVC///CB,0.00,WUHU216DAVISVP2,2013-03-01 22:36:00,
2013-03-01 17:41:00,27.2,23.9,30.01,NNE,21,9.0,9.0,87,0.00,,OVC OVC///CB,0.00,WUHU216DAVISVP2,2013-03-01 22:41:00,
2013-03-01 17:46:00,27.2,23.9,30.01,NNW,337,3.0,10.0,87,0.00,,OVC OVC///CB,0.00,WUHU216DAVISVP2,2013-03-01 22:46:00,
2013-03-01 17:51:00,27.3,24.0,30.01,WNW,291,5.0,10.0,87,0.00,,OVC OVC///CB,0.00,WUHU216DAVISVP2,2013-03-01 22:51:00,
2013-03-01 17:56:00,27.2,24.2,30.01,NNW,332,2.0,9.0,88,0.00,,OVC OVC///CB,0.00,WUHU216DAVISVP2,2013-03-01 22:56:00,
2013-03-01 18:01:00,27.2,24.2,30.02,NW,322,3.0,8.0,88,0.00,,OVC OVC///CB,0.00,WUHU216DAVISVP2,2013-03-01 23:01:00,
2013-03-01 18:06:00,27.1,24.4,30.02,WNW,288,3.0,8.0,89,0.00,,OVC OVC///CB,0.00,WUHU216DAVISVP2,2013-03-01 23:06:00,
2013-03-01 18:11:00,27.1,24.4,30.02,NW,326,0.0,8.0,89,0.00,,OVC OVC///CB,0.00,WUHU216DAVISVP2,2013-03-01 23:11:00,
2013-03-01 18:16:00,27.0,24.0,30.02,WNW,290,1.0,10.0,88,0.00,,OVC OVC///CB,0.00,WUHU216DAVISVP2,2013-03-01 23:16:00,
2013-03-01 18:21:00,27.1,23.8,30.02,WNW,295,1.0,10.0,87,0.00,,OVC OVC///CB,0.00,WUHU216DAVISVP2,2013-03-01 23:21:00,
2013-03-01 18:26:00,27.0,23.7,30.02,NNW,338,5.0,10.0,87,0.00,,OVC OVC///CB,0.00,WUHU216DAVISVP2,2013-03-01 23:26:00,
2013-03-01 18:31:00,27.0,23.4,30.02,NNW,337,3.0,10.0,86,0.00,,OVC OVC///CB,0.00,WUHU216DAVISVP2,2013-03-01 23:31:00,
2013-03-01 18:36:00,27.0,23.7,30.02,NNE,20,3.0,10.0,87,0.00,,OVC OVC///CB,0.00,WUHU216DAVISVP2,2013-03-01 23:36:00,
2013-03-01 18:41:00,27.0,23.7,30.02,NNW,327,2.0,8.0,87,0.00,,OVC OVC///CB,0.00,WUHU216DAVISVP2,2013-03-01 23:41:00,
2013-03-01 18:46:00,27.0,23.7,30.02,NW,319,0.0,7.0,87,0.00,,OVC OVC///CB,0.00,WUHU216DAVISVP2,2013-03-01 23:46:00,
2013-03-01 18:51:00,27.0,24.0,30.02,NNW,335,3.0,7.0,88,0.00,,OVC OVC///CB,0.00,WUHU216DAVISVP2,2013-03-01 23:51:00,
2013-03-01 18:56:00,26.9,23.6,30.03,North,352,2.0,9.0,87,0.00,,OVC OVC///CB,0.00,WUHU216DAVISVP2,2013-03-01 23:56:00,
2013-03-01 19:01:00,26.8,23.5,30.02,WNW,297,3.0,10.0,87,0.00,,OVC OVC///CB,0.00,WUHU216DAVISVP2,2013-03-02 00:01:00,
2013-03-01 19:06:00,26.8,23.5,30.02,North,8,2.0,10.0,87,0.00,,OVC OVC///CB,0.00,WUHU216DAVISVP2,2013-03-02 00:06:00,
2013-03-01 19:11:00,26.8,23.8,30.03,NNW,335,1.0,10.0,88,0.00,,OVC OVC///CB,0.00,WUHU216DAVISVP2,2013-03-02 00:11:00,
2013-03-01 19:16:00,26.7,23.7,30.03,NW,319,4.0,10.0,88,0.00,,OVC OVC///CB,0.00,WUHU216DAVISVP2,2013-03-02 00:16:00,
2013-03-01 19:21:00,26.7,23.7,30.03,NW,322,5.0,9.0,88,0.00,,OVC OVC///CB,0.00,WUHU216DAVISVP2,2013-03-02 00:21:00,
2013-03-01 19:26:00,26.7,23.7,30.03,NW,316,4.0,9.0,88,0.00,,OVC OVC///CB,0.00,WUHU216DAVISVP2,2013-03-02 00:26:00,
2013-03-01 19:31:00,26.5,23.8,30.03,NNE,19,3.0,8.0,89,0.00,,OVC OVC///CB,0.00,WUHU216DAVISVP2,2013-03-02 00:31:00,
2013-03-01 19:36:00,26.3,23.8,30.03,NW,319,4.0,8.0,90,0.00,,OVC OVC///CB,0.00,WUHU216DAVISVP2,2013-03-02 00:36:00,
2013-03-01 19:41:00,26.3,23.8,30.04,WNW,291,1.0,8.0,90,0.00,,OVC OVC///CB,0.00,WUHU216DAVISVP2,2013-03-02 00:41:00,
2013-03-01 19:46:00,26.2,23.7,30.03,WNW,294,1.0,7.0,90,0.00,,OVC OVC///CB,0.00,WUHU216DAVISVP2,2013-03-02 00:46:00,
2013-03-01 19:51:00,26.2,23.7,30.03,WNW,300,2.0,7.0,90,0.00,,OVC OVC///CB,0.00,WUHU216DAVISVP2,2013-03-02 00:51:00,
2013-03-01 19:56:00,26.2,23.7,30.04,ENE,58,3.0,12.0,90,0.00,,OVC OVC///CB,0.00,WUHU216DAVISVP2,2013-03-02 00:56:00,
2013-03-01 20:01:00,26.2,23.7,30.04,WNW,298,1.0,12.0,90,0.00,,OVC OVC///CB,0.00,WUHU216DAVISVP2,2013-03-02 01:01:00,
2013-03-01 20:06:00,26.2,23.5,30.04,NW,321,6.0,14.0,89,0.00,,OVC OVC///CB,0.00,WUHU216DAVISVP2,2013-03-02 01:06:00,
2013-03-01 20:11:00,26.1,23.4,30.04,NNW,342,6.0,14.0,89,0.00,,OVC OVC///CB,0.00,WUHU216DAVISVP2,2013-03-02 01:11:00,
2013-03-01 20:16:00,26.2,23.7,30.04,NW,319,5.0,14.0,90,0.00,,OVC OVC///CB,0.00,WUHU216DAVISVP2,2013-03-02 01:16:00,
2013-03-01 20:21:00,26.0,23.5,30.04,WNW,301,3.0,13.0,90,0.00,,OVC OVC///CB,0.00,WUHU216DAVISVP2,2013-03-02 01:21:00,
2013-03-01 20:26:00,25.9,23.4,30.04,NNW,332,4.0,13.0,90,0.00,,OVC OVC///CB,0.00,WUHU216DAVISVP2,2013-03-02 01:26:00,
2013-03-01 20:31:00,25.9,23.4,30.04,NNE,32,3.0,12.0,90,0.00,,OVC OVC///CB,0.00,WUHU216DAVISVP2,2013-03-02 01:31:00,
2013-03-01 20:36:00,25.9,23.4,30.04,North,356,4.0,12.0,90,0.00,,OVC OVC///CB,0.00,WUHU216DAVISVP2,2013-03-02 01:36:00,
2013-03-01 20:41:00,25.8,23.3,30.04,SSE,159,1.0,12.0,90,0.00,,OVC OVC///CB,0.00,WUHU216DAVISVP2,2013-03-02 01:41:00,
2013-03-01 20:46:00,25.8,23.6,30.04,NW,311,5.0,7.0,91,0.00,,OVC OVC///CB,0.00,WUHU216DAVISVP2,2013-03-02 01:46:00,
2013-03-01 20:51:00,25.7,23.5,30.04,NNW,332,2.0,9.0,91,0.00,,OVC OVC///CB,0.00,WUHU216DAVISVP2,2013-03-02 01:51:00,
2013-03-01 20:56:00,25.7,23.5,30.04,WNW,290,5.0,9.0,91,0.00,,OVC OVC///CB,0.00,WUHU216DAVISVP2,2013-03-02 01:56:00,
2013-03-01 21:01:00,25.7,23.5,30.05,NW,314,1.0,8.0,91,0.00,,OVC OVC///CB,0.00,WUHU216DAVISVP2,2013-03-02 02:01:00,
2013-03-01 21:06:00,25.6,23.4,30.05,NW,307,3.0,9.0,91,0.00,,OVC OVC///CB,0.00,WUHU216DAVISVP2,2013-03-02 02:06:00,
2013-03-01 21:11:00,25.5,23.3,30.05,WNW,293,2.0,9.0,91,0.00,,OVC OVC///CB,0.00,WUHU216DAVISVP2,2013-03-02 02:11:00,
2013-03-01 21:16:00,25.5,23.0,30.05,NNW,332,1.0,10.0,90,0.00,,OVC OVC///CB,0.00,WUHU216DAVISVP2,2013-03-02 02:16:00,
2013-03-01 21:21:00,25.5,23.3,30.05,NNW,332,4.0,10.0,91,0.00,,OVC OVC///CB,0.00,WUHU216DAVISVP2,2013-03-02 02:21:00,
2013-03-01 21:26:00,25.4,23.2,30.05,WNW,303,2.0,9.0,91,0.00,,OVC OVC///CB,0.00,WUHU216DAVISVP2,2013-03-02 02:26:00,
2013-03-01 21:31:00,25.4,23.2,30.05,NNW,347,3.0,9.0,91,0.00,,OVC OVC///CB,0.00,WUHU216DAVISVP2,2013-03-02 02:31:00,
2013-03-01 21:36:00,25.4,23.2,30.05,NNW,328,5.0,8.0,91,0.00,,OVC OVC///CB,0.00,WUHU216DAVISVP2,2013-03-02 02:36:00,
2013-03-01 21:41:00,25.4,23.2,30.05,NNE,26,1.0,8.0,91,0.00,,OVC OVC///CB,0.00,WUHU216DAVISVP2,2013-03-02 02:41:00,
2013-03-01 21:46:00,25.4,22.9,30.05,NW,305,4.0,8.0,90,0.00,,OVC OVC///CB,0.00,WUHU216DAVISVP2,2013-03-02 02:46:00,
2013-03-01 21:51:00,25.4,22.9,30.05,North,350,0.0,8.0,90,0.00,,OVC OVC///CB,0.00,WUHU216DAVISVP2,2013-03-02 02:51:00,
2013-03-01 21:56:00,25.4,22.7,30.05,NW,321,2.0,8.0,89,0.00,,OVC OVC///CB,0.00,WUHU216DAVISVP2,2013-03-02 02:56:00,
2013-03-01 22:01:00,25.4,22.7,30.04,NW,307,2.0,8.0,89,0.00,,OVC OVC///CB,0.00,WUHU216DAVISVP2,2013-03-02 03:01:00,
2013-03-01 22:06:00,25.4,22.4,30.05,North,359,7.0,11.0,88,0.00,,OVC OVC///CB,0.00,WUHU216DAVISVP2,2013-03-02 03:06:00,
2013-03-01 22:11:00,25.4,22.4,30.05,NNE,18,7.0,11.0,88,0.00,,OVC OVC///CB,0.00,WUHU216DAVISVP2,2013-03-02 03:11:00,
2013-03-01 22:16:00,25.5,22.5,30.05,North,6,2.0,11.0,88,0.00,,OVC OVC///CB,0.00,WUHU216DAVISVP2,2013-03-02 03:16:00,
2013-03-01 22:21:00,25.5,22.5,30.05,NNE,19,7.0,11.0,88,0.00,,OVC OVC///CB,0.00,WUHU216DAVISVP2,2013-03-02 03:21:00,
2013-03-01 22:26:00,25.5,22.2,30.05,North,360,7.0,8.0,87,0.00,,OVC OVC///CB,0.00,WUHU216DAVISVP2,2013-03-02 03:26:00,
2013-03-01 22:31:00,25.5,22.2,30.04,NNW,335,3.0,7.0,87,0.00,,OVC OVC///CB,0.00,WUHU216DAVISVP2,2013-03-02 03:31:00,
2013-03-01 22:36:00,25.5,22.2,30.04,WNW,302,1.0,7.0,87,0.00,,OVC OVC///CB,0.00,WUHU216DAVISVP2,2013-03-02 03:36:00,
2013-03-01 22:41:00,25.5,22.2,30.05,NW,325,1.0,7.0,87,0.00,,OVC OVC///CB,0.00,WUHU216DAVISVP2,2013-03-02 03:41:00,
2013-03-01 22:46:00,25.4,22.1,30.04,West,264,1.0,9.0,87,0.00,,OVC OVC///CB,0.00,WUHU216DAVISVP2,2013-03-02 03:46:00,
2013-03-01 22:51:00,25.4,22.1,30.04,NNW,332,4.0,9.0,87,0.00,,OVC OVC///CB,0.00,WUHU216DAVISVP2,2013-03-02 03:51:00,
2013-03-01 22:56:00,25.3,22.0,30.04,NW,305,0.0,9.0,87,0.00,,OVC OVC///CB,0.00,WUHU216DAVISVP2,2013-03-02 03:56:00,
2013-03-01 23:01:00,25.3,22.0,30.04,NW,313,3.0,9.0,87,0.00,,OVC OVC///CB,0.00,WUHU216DAVISVP2,2013-03-02 04:01:00,
2013-03-01 23:06:00,25.3,22.0,30.04,West,260,0.0,8.0,87,0.00,,OVC OVC///CB,0.00,WUHU216DAVISVP2,2013-03-02 04:06:00,
2013-03-01 23:11:00,25.3,22.0,30.04,NW,308,0.0,6.0,87,0.00,,OVC OVC///CB,0.00,WUHU216DAVISVP2,2013-03-02 04:11:00,
2013-03-01 23:16:00,25.3,22.0,30.04,NNW,334,1.0,6.0,87,0.00,,OVC OVC///CB,0.00,WUHU216DAVISVP2,2013-03-02 04:16:00,
2013-03-01 23:21:00,25.3,22.0,30.04,NNW,336,4.0,6.0,87,0.00,,OVC OVC///CB,0.00,WUHU216DAVISVP2,2013-03-02 04:21:00,
2013-03-01 23:26:00,25.3,22.0,30.04,WNW,287,1.0,5.0,87,0.00,,OVC OVC///CB,0.00,WUHU216DAVISVP2,2013-03-02 04:26:00,
2013-03-01 23:31:00,25.3,22.0,30.04,NNW,330,6.0,8.0,87,0.00,,OVC OVC///CB,0.00,WUHU216DAVISVP2,2013-03-02 04:31:00,
2013-03-01 23:36:00,25.3,22.0,30.04,NNW,343,1.0,8.0,87,0.00,,OVC OVC///CB,0.00,WUHU216DAVISVP2,2013-03-02 04:36:00,
2013-03-01 23:41:00,25.3,22.3,30.04,NW,308,3.0,13.0,88,0.00,,OVC OVC///CB,0.00,WUHU216DAVISVP2,2013-03-02 04:41:00,
2013-03-01 23:46:00,25.3,22.3,30.03,North,1,4.0,13.0,88,0.00,,OVC OVC///CB,0.00,WUHU216DAVISVP2,2013-03-02 04:46:00,
2013-03-01 23:51:00,25.3,22.6,30.03,NW,313,1.0,12.0,89,0.00,,OVC OVC///CB,0.00,WUHU216DAVISVP2,2013-03-02 04:51:00,
2013-03-01 23:56:00,25.2,22.5,30.03,NNE,15,4.0,12.0,89,0.00,,OVC OVC///CB,0.00,WUHU216DAVISVP2,2013-03-02 04:56:00,